Regional Weather Roundup
Issued by NWS

Home | Current Version | Previous Version | Text Only | Print | Product List | Glossary Off
Versions: 1 2 3 4 5 6 7 8 9 10 11 12 13 14 15 16 17 18 19 20 21 22 23 24 25 26 27 28 29 30 31 32 33 34 35 36 37 38 39 40 41 42 43 44 45 46 47 48 49 50

000
ASUS44 KMEG 301710
RWRTN
TENNESSEE HOURLY STATE WEATHER ROUNDUP
NATIONAL WEATHER SERVICE MEMPHIS TN
1200 PM CDT TUE JUN 30 2015

TNZ002-004-019-021-049-052-054-088>092-301800-
WEST TENNESSEE

CITY           SKY/WX    TMP DP  RH WIND       PRES   REMARKS
MEMPHIS INTL   CLOUDY    84  73  69 SW8       29.98R HX  90
NWS MEMPHIS      N/A     83 N/A N/A MISG        N/A
JACKSON        SUNNY     84  70  62 SW7       29.96F
DYERSBURG        N/A    N/A N/A N/A MISG        N/A
PARIS          MOSUNNY   81  70  69 SW7       29.95S
LEXINGTON      SUNNY     82  70  65 W6        29.96R
$$

TNZ008-025-027-028-033-062-065-066-301800-
NORTH MIDDLE TENNESSEE

CITY           SKY/WX    TMP DP  RH WIND       PRES   REMARKS
NASHVILLE      PTSUNNY   83  70  64 W7        29.94F
CLARKSVILLE    PTSUNNY   82  69  64 W6        29.94S
SMYRNA         TSTM      84  72  65 SW7       29.94F FOG
COOKEVILLE     MOSUNNY   82  73  74 VRB6      29.96F
CROSSVILLE     PTSUNNY   78  68  71 W10       30.01F THUNDER
$$

TNZ061-075-076-078-094-096-097-301800-
SOUTH MIDDLE TENNESSEE

CITY           SKY/WX    TMP DP  RH WIND       PRES   REMARKS
FAYETTEVILLE   PTSUNNY   79  68  69 W10       30.00S
TULLAHOMA      PTSUNNY   79  68  69 SW13      30.00F
WINCHESTER     PTSUNNY   79  70  73 SW8       30.00S
MCMINNVILLE    MOSUNNY   82  72  69 SW9       29.97F
COLUMBIA       MOSUNNY   84  72  65 VRB6      29.96S
SHELBYVILLE    PTSUNNY   82  73  74 SW10      29.98F
$$

TNZ017-018-042-046-047-301800-
NORTHEAST TENNESSEE

CITY           SKY/WX    TMP DP  RH WIND       PRES   REMARKS
TRI CITIES     PTSUNNY   79  65  62 W9        30.00R
ELIZABETHTON   PTSUNNY   75  64  69 VRB5      30.00F
$$

TNZ012-013-036-069-073-074-301800-
CENTRAL EAST TENNESSEE

CITY           SKY/WX    TMP DP  RH WIND       PRES   REMARKS
KNOXVILLE      CLOUDY    79  69  71 SW13      29.97F
OAK RIDGE      CLOUDY    78  68  71 VRB6      30.00R
GATLINBURG     MOSUNNY   82  68  61 W10       29.97S
MORRISTOWN       N/A     81  68  65 SW13      30.00S
$$

TNZ083-085-099-301800-
SOUTHEAST TENNESSEE

CITY           SKY/WX    TMP DP  RH WIND       PRES   REMARKS
CHATTANOOGA    CLOUDY    80  68  66 SW17      29.98F THUNDER
$$

SKY/WX REPORTED AS FAIR MEANS FEW OR NO CLOUDS BELOW
12 THOUSAND FEET.




USA.gov is the U.S. government's official web portal to all federal, state and local government web resources and services.